Location: Cerroniocc
(13.7547°S, 72.0222°W)
Time: 19:57:35
(UTC+00:00)

GPS 2-12 Rocket1 - Pass Details

Date: 05 July 2020
Orbit: 586 x 652 km, 20.0° (Epoch: 10 August)

Event Time Altitude Azimuth Distance (km) Brightness Sun altitude
Rises 23:36:03 0° 262° (W) 2,943 7.7 -15.0°
Reaches altitude 10° 23:38:29 10° 267° (W) 2,038 6.8 -15.6°
Maximum altitude 23:43:05 46° 340° (NNW) 867 4.1 -16.6°
Enters shadow 23:47:10 13° 52° (NE) 1,851 5.2 -17.6°
